Location: Bartshausen
(51.8454°N, 9.8167°E)
Time: 10:20:36
(UTC+00:00)

Cosmos 1869 - Pass Details

Date: 08 November 2025
Orbit: 453 x 480 km, 82.5° (Epoch: 11 December)

Event Time Altitude Azimuth Distance (km) Brightness Sun altitude
Rises 04:39:11 0° 354° (N) 2,490 6.6 -16.9°
Reaches altitude 10° 04:41:21 10° 1° (N) 1,608 5.6 -16.5°
Maximum altitude 04:44:42 43° 74° (ENE) 657 4.2 -16.0°
Drops below altitude 10° 04:48:01 10° 148° (SSE) 1,589 6.2 -15.5°
Sets 04:50:09 0° 155° (SSE) 2,457 7.1 -15.2°
